EW8203 Weather Reports


time (UTC)temp
F
wind
direction
speed
knots
gust
knots
rain 1hr
in
rain 24hr
in
rain mn
in
humidity
%
barometer
mb
20260906053031 83 78 2.6 7.0 0.00 0.00 0.00 75 1012.6
20260906051523 84 69 2.6 6.1 0.00 0.00 0.00 74 1012.6
20260906050032 84 61 2.6 7.0 0.00 0.00 0.00 72 1012.6
20260906044532 84 60 1.7 3.5 0.00 0.00 0.00 71 1012.4
20260906043019 85 62 1.7 3.5 0.00 0.00 0.00 70 1012.3
20260906041518 85 49 1.7 4.3 0.00 0.00 0.00 68 1012.3
20260906040025 85 49 0.9 4.3 0.00 0.00 0.00 67 1012.3
20260906034518 85 66 0.0 2.6 0.00 0.00 0.00 66 1012.2
20260906033034 86 52 0.0 3.5 0.00 0.00 0.00 64 1012.2
20260906031516 86 65 0.9 2.6 0.00 0.00 0.00 63 1011.9
20260906030016 87 53 0.9 2.6 0.00 0.00 0.00 62 1011.8
20260906024515 87 39 0.9 2.6 0.00 0.00 0.00 61 1011.7
20260906023015 88 62 0.9 3.5 0.00 0.00 0.00 60 1011.4
20260906021515 88 54 1.7 3.5 0.00 0.00 0.00 59 1011.2
20260906020015 88 46 0.0 1.7 0.00 0.00 0.00 59 1011.0
20260906014514 89 57 0.9 4.3 0.00 0.00 0.00 58 1010.8
20260906013014 89 28 0.0 1.7 0.00 0.00 0.00 58 1010.7
20260906011513 90 76 0.0 2.6 0.00 0.00 0.00 58 1010.6
20260906010013 90 64 0.9 2.6 0.00 0.00 0.00 57 1010.5
20260906004512 91 57 0.9 2.6 0.00 0.00 0.00 55 1010.4
20260906003012 93 33 0.9 3.5 0.00 0.00 0.00 54 1010.3
20260906001510 94 63 0.9 3.5 0.00 0.00 0.00 50 1010.4
20260906000011 95 38 0.0 1.7 0.00 0.00 0.00 48 1010.3
20260905234509 96 28 0.0 1.7 0.00 0.00 0.00 47 1010.4
20260905233009 97 40 0.0 2.6 0.00 0.00 0.00 45 1010.3
20260905231508 98 355 0.0 2.6 0.00 0.00 0.00 44 1010.3
20260905230008 98 14 0.0 1.7 0.00 0.00 0.00 44 1010.6
20260905224508 99 80 0.0 2.6 0.00 0.00 0.00 45 1010.4
20260905223008 100 132 0.9 7.8 0.00 0.00 0.00 43 1010.4
20260905221506 100 148 0.0 1.7 0.00 0.00 0.00 42 1010.3
20260905220006 100 120 0.0 7.8 0.00 0.00 0.00 40 1010.4
20260905214505 99 240 0.0 2.6 0.00 0.00 0.00 41 1010.3
20260905213004 99 305 0.0 2.6 0.00 0.00 0.00 39 1010.4
20260905211506 100 67 0.0 1.7 0.00 0.00 0.00 38 1010.5
20260905210002 102 94 0.0 5.2 0.00 0.00 0.00 36 1010.5
20260905204506 104 118 0.0 1.7 0.00 0.00 0.00 36 1010.6
20260905203002 103 53 0.0 0.0 0.00 0.00 0.00 37 1010.6
20260905201601 103 110 0.0 2.6 0.00 0.00 0.00 37 1010.8
20260905194600 102 42 0.0 4.3 0.00 0.00 0.00 38 1011.1
20260905193055 103 120 0.0 4.3 0.00 0.00 0.00 37 1011.5
20260905191553 103 146 0.0 1.7 0.00 0.00 0.00 37 1011.7
20260905190053 103 103 0.0 2.6 0.00 0.00 0.00 38 1011.7
20260905184548 102 111 0.0 1.7 0.00 0.00 0.00 39 1011.8
20260905183045 102 90 0.0 4.3 0.00 0.00 0.00 40 1012.1
20260905181602 102 5 0.0 0.9 0.00 0.00 0.00 41 1012.3
20260905180040 101 139 0.0 2.6 0.00 0.00 0.00 44 1012.2
20260905174547 100 355 0.0 7.0 0.00 0.00 0.00 46 1012.4
20260905173034 100 206 0.0 0.9 0.00 0.00 0.00 46 1012.5
20260905171537 99 120 0.0 2.6 0.00 0.00 0.00 47 1012.5
20260905170023 99 344 0.0 1.7 0.00 0.00 0.00 47 1012.8
20260905164519 97 316 0.0 2.6 0.00 0.00 0.00 49 1012.9
20260905163016 96 296 0.0 3.5 0.00 0.00 0.00 50 1013.1
20260905161510 95 283 0.9 4.3 0.00 0.00 0.00 53 1013.1
20260905160010 94 345 0.0 2.6 0.00 0.00 0.00 55 1013.2
20260905154503 93 300 0.0 2.6 0.00 0.00 0.00 56 1013.3
20260905153102 93 341 0.0 2.6 0.00 0.00 0.00 57 1013.4
20260905151603 92 246 0.0 2.6 0.00 0.00 0.00 58 1013.4
20260905150054 91 290 0.0 3.5 0.00 0.00 0.00 60 1013.3
20260905144551 89 63 0.0 2.6 0.00 0.00 0.00 61 1013.2
20260905143049 88 323 0.9 7.0 0.00 0.00 0.00 62 1013.3
20260905141545 87 297 1.7 4.3 0.00 0.00 0.00 63 1013.1
20260905140041 86 246 1.7 6.1 0.00 0.00 0.00 66 1013.0
20260905134539 85 282 0.9 6.1 0.00 0.00 0.00 68 1013.0
20260905133041 84 290 1.7 7.0 0.00 0.00 0.00 70 1013.0
20260905131538 83 256 1.7 7.0 0.00 0.00 0.00 70 1012.9
20260905130037 82 242 1.7 5.2 0.00 0.00 0.00 71 1012.9
20260905124541 82 265 0.9 7.0 0.00 0.00 0.00 73 1012.8
20260905123037 81 257 1.7 4.3 0.00 0.00 0.00 73 1012.8
20260905121533 81 247 1.7 7.0 0.00 0.00 0.00 74 1012.6
20260905120034 81 278 1.7 4.3 0.00 0.00 0.00 74 1012.5
20260905114534 81 273 1.7 3.5 0.00 0.00 0.00 74 1012.5
20260905113032 81 254 0.9 5.2 0.00 0.00 0.00 74 1012.3
20260905111532 81 269 0.0 5.2 0.00 0.00 0.00 74 1012.2
20260905110031 81 257 0.9 3.5 0.00 0.00 0.00 74 1012.2
20260905104529 81 248 0.9 3.5 0.00 0.00 0.00 74 1012.1
20260905103032 81 246 0.9 3.5 0.00 0.00 0.00 74 1012.1
20260905101528 81 253 0.9 2.6 0.00 0.00 0.00 74 1012.2
20260905100027 81 244 0.0 2.6 0.00 0.00 0.00 73 1012.1
20260905094534 81 263 0.0 2.6 0.00 0.00 0.00 74 1012.1
20260905093025 81 257 0.9 2.6 0.00 0.00 0.00 74 1012.1
20260905091559 82 272 0.0 2.6 0.00 0.00 0.00 74 1012.0
20260905090023 82 269 0.0 2.6 0.00 0.00 0.00 74 1012.1
20260905084521 82 281 0.9 3.5 0.00 0.00 0.00 73 1012.1
20260905083021 83 263 1.7 5.2 0.00 0.00 0.00 72 1012.1
20260905081517 83 264 0.9 3.5 0.00 0.00 0.00 72 1012.2
20260905080017 83 269 0.0 2.6 0.00 0.00 0.00 71 1012.2
20260905074517 83 184 0.0 1.7 0.00 0.00 0.00 70 1012.2
20260905073014 84 241 0.9 2.6 0.00 0.00 0.00 70 1012.3
20260905071512 84 259 0.9 6.1 0.00 0.00 0.00 69 1012.4
20260905070016 84 265 0.0 2.6 0.00 0.00 0.00 68 1012.5
20260905064510 84 251 0.0 1.7 0.00 0.00 0.00 68 1012.5
20260905063009 84 242 0.0 1.7 0.00 0.00 0.00 68 1012.4
20260905061507 84 241 0.0 2.6 0.00 0.00 0.00 68 1012.5
20260905060009 84 256 0.9 3.5 0.00 0.00 0.00 67 1012.6
20260905054502 85 241 0.0 3.5 0.00 0.00 0.00 66 1012.5